Regional Weather Roundup
Issued by NWS

Home | Current Version | Previous Version | Text Only | Print | Product List | Glossary On
Versions: 1 2 3 4 5 6 7 8 9 10 11 12 13 14 15 16 17 18 19 20 21 22 23 24 25 26 27 28 29 30 31 32 33 34 35 36 37 38 39 40 41 42 43 44 45 46 47 48 49 50
000
ASUS45 KPSR 290910
RWRAZ

ARIZONA REGIONAL HOURLY WEATHER ROUNDUP
NATIONAL WEATHER SERVICE TUCSON AZ
200 AM MST MON MAY 29 2017

NOTE: FAIR INDICATES FEW OR NO CLOUDS BELOW 12,000 FEET WITH NO
SIGNIFICANT WEATHER AND/OR OBSTRUCTIONS TO VISIBILITY.

AZZ001>003-036-291000-
NORTHWEST ARIZONA

CITY           SKY/WX    TMP DP  RH WIND       PRES   REMARKS
BULLHEAD CITY  CLEAR     77  19  11 CALM      29.78S
KINGMAN        CLEAR     60  18  19 MISG      29.97F
$$

AZZ004>008-015-016-018-291000-
NORTH CENTRAL ARIZONA

CITY           SKY/WX    TMP DP  RH WIND       PRES   REMARKS
GRAND CANYON   PTCLDY    52  23  32 E6        30.22S
WILLIAMS       SUNNY     52  19  28 SE8       30.20S
PRESCOTT       CLEAR     56  26  31 S9        30.07F
FLAGSTAFF      CLEAR     41  22  46 CALM      30.24S
PAYSON         SUNNY     64  21  19 NE6       30.10F
PAGE           CLEAR     64  22  20 CALM      30.08S
$$

AZZ009>014-017-291000-
NORTHEAST ARIZONA

CITY           SKY/WX    TMP DP  RH WIND       PRES   REMARKS
WINSLOW        CLEAR     51  17  26 CALM      30.11F
SAINT JOHNS    CLEAR     60  31  33 SE6       30.13F
WINDOW ROCK    PTCLDY    41  21  44 CALM      30.24F
SHOW LOW       CLEAR     45  14  29 CALM      30.17F
$$

AZZ023-291000-
GREATER PHOENIX AREA

CITY           SKY/WX    TMP DP  RH WIND       PRES   REMARKS
PHOENIX        CLEAR     79  29  16 SW5       29.78F
BUCKEYE        SUNNY     73  18  12 CALM      29.79F
LUKE AFB       CLEAR     73  36  26 CALM      29.78F
DEER VALLEY    CLEAR     70  26  19 CALM      29.80F
SCOTTSDALE     CLEAR     76  36  23 CALM      29.82F
MESA-GATEWAY   CLEAR     70  28  21 SE8       29.82F
$$

AZZ027-028-291000-
SOUTHWEST MARICOPA COUNTY AND PINAL COUNTY

CITY           SKY/WX    TMP DP  RH WIND       PRES   REMARKS
CASA GRANDE    CLEAR     76  22  13 W9        29.82F
$$

AZZ503-504-507>509-291000-
SOUTHEAST ARIZONA

CITY           SKY/WX    TMP DP  RH WIND       PRES   REMARKS
TUCSON         CLEAR     71  20  14 SE3       29.92F
DAVIS-MONTHAN  CLEAR     68  21  16 S8        29.91F
NOGALES        CLEAR     61  28  28 N3        29.99F
SIERRA VISTA   CLEAR     68  13  12 W9        30.04F
DOUGLAS        CLEAR     64  12  13 N10       30.00F
SAFFORD        CLEAR     68  11  11 VRB3      29.94S
$$

AZZ020-021-025-026-031-291000-
SOUTHWEST ARIZONA

CITY           SKY/WX    TMP DP  RH WIND       PRES   REMARKS
YUMA           CLEAR     81  38  21 NW6       29.76F
$$

CAZ031-033-041-043-047-048-061-291000-
SOUTHERN CALIFORNIA

CITY           SKY/WX    TMP DP  RH WIND       PRES   REMARKS
DOWNTOWN L.A.  CLOUDY    61  57  87 CALM      29.94F
L.A. AIRPORT   MOCLDY    60  57  89 W6        29.95F
SAN DIEGO      CLOUDY    62  57  83 NW5       29.96F
BURBANK        PTCLDY    60  53  77 SE6       29.93F
ONTARIO        PTCLDY    59  53  80 VRB3      29.94F
RIVERSIDE      CLEAR     60  54  80 CALM      29.94F
PALM SPRINGS   CLEAR     78  48  34 E3        29.80F
EL CENTRO NAS    N/A     75  32  20 W10       29.76F
IMPERIAL       CLEAR     75  42  30 W6        29.74F
BLYTHE         CLEAR     82  26  13 S5        29.76S
NEEDLES        CLEAR     83  11   6 SW3       29.79S
$$

NVZ020-UTZ003-291000-
SOUTHERN NEVADA-UTAH

CITY           SKY/WX    TMP DP  RH WIND       PRES   REMARKS
LAS VEGAS      CLEAR     76  17  11 S3        29.88F
SALT LAKE CITY CLEAR     59  39  47 SW3       30.13F
$$

NMZ009-TXZ055-291000-
NEW MEXICO-WEST TEXAS

CITY           SKY/WX    TMP DP  RH WIND       PRES   REMARKS
ALBUQUERQUE    PTCLDY    64  35  34 E9        30.18F
EL PASO        CLEAR     70  41  34 NE5       30.07S
$$


........................KEY........................
SKY/WX - SKY CONDITION/WEATHER
TMP    - TEMPERATURE IN FAHRENHEIT
DP     - DEWPOINT IN FAHRENHEIT
RH     - RELATIVE HUMIDITY IN PERCENT
WIND   - DIRECTION AND SPEED IN MILES PER HOUR (MPH)
VRB    - VARIABLE WIND DIRECTION
PRES   - MEAN SEA LEVEL PRESSURE IN INCHES OF MERCURY
         F - FALLING PRESSURE   R - RISING PRESSURE
         S - STEADY PRESSURE
VSB    - VISIBILITY IN MILES
HX     - HEAT INDEX IN FAHRENHEIT
WCI    - WIND CHILL INDEX IN FAHRENHEIT
TC     - TEMPERATURE IN CELSIUS WHICH IS ALSO KNOWN AS
         TEMPERATURE IN CENTIGRADE
AFB    - AIR FORCE BASE
         LUKE AFB IS LUKE AIR FORCE BASE
         DAVIS-MONTHAN IS DAVIS-MONTHAN AIR FORCE BASE
NAS    - NAVAL AIR STATION
         EL CENTRO NAS IS EL CENTRO NAVAL AIR STATION
N/A    - NOT AVAILABLE




USA.gov is the U.S. government's official web portal to all federal, state and local government web resources and services.